{"data":{"norad_id":61064,"intl_designator":"2024-164Q","name":"STARLINK-32378","alt_names":[],"object_type":"PAYLOAD","status":"ACTIVE","operator":null,"country":"US","launch_date":"2024-09-13","launch_site_code":"AFWTR","launch_vehicle":null,"mission":null,"orbit_class":"UNKNOWN","rcs_meters":null,"size_class":null,"mass_kg":null,"dimensions":null,"purposes":["comms"],"wikipedia_slug":null,"has_3d_model":false,"image_url":null,"decayed_at":null,"tle_current":{"epoch":"2026-05-25T03:19:30.844416Z","epoch_age_seconds":56408,"freshness":"FRESH","line1":"1 61064U 24164Q   26145.13855144 -.00000477  00000+0 -36078-5 0  9991","line2":"2 61064  53.1613  95.9213 0001354  81.6076 278.5079 15.31695473 95183","mean_motion":15.31695473,"eccentricity":0.0001354,"inclination_deg":53.1613,"raan_deg":95.9213,"arg_perigee_deg":81.6076,"mean_anomaly_deg":278.5079,"bstar":-3.6078e-6,"rev_number":9518,"period_min":94.01346582161,"perigee_km":469.82615023797,"apogee_km":471.68082978267,"semimajor_km":6848.8904900103,"source":"CELESTRAK","updated_at":"2026-05-25T13:38:19.356441Z"}}}